GW1572 Weather Reports


time (UTC)temp
C
wind
direction
speed
KPH
gust
KPH
rain 1hr
cm
rain 24hr
cm
rain mn
cm
humidity
%
barometer
mb
20260902151838 30 181 1.6 1.6 0.00 0.00 0.00 78 1011.1
20260902150029 29 177 1.6 1.6 0.00 0.00 0.00 84 1011.1
20260902145445 28 178 1.6 1.6 0.00 0.00 0.00 87 1011.1
20260902144233 28 157 1.6 1.6 0.00 0.00 0.00 91 1011.1
20260902143627 27 149 0.0 0.0 0.00 0.00 0.00 93 1010.8
20260902143043 27 135 0.0 0.0 0.00 0.00 0.00 92 1010.8
20260902142438 27 157 0.0 1.6 0.00 0.00 0.00 94 1011.1
20260902141822 27 148 0.0 0.0 0.00 0.00 0.00 96 1010.8
20260902141225 26 153 0.0 0.0 0.00 0.00 0.00 96 1011.1
20260902140643 26 152 0.0 0.0 0.00 0.00 0.00 97 1011.1
20260902140014 25 150 0.0 0.0 0.00 0.00 0.00 98 1011.1
20260902135430 25 154 0.0 0.0 0.00 0.00 0.00 99 1011.1
20260902134845 25 160 0.0 1.6 0.00 0.00 0.00 99 1010.8
20260902134207 24 144 0.0 0.0 0.00 0.00 0.00 99 1011.1
20260902133612 24 149 0.0 0.0 0.00 0.00 0.00 99 1011.1
20260902133016 23 153 1.6 1.6 0.00 0.00 0.00 99 1010.8
20260902132406 23 149 0.0 0.0 0.00 0.00 0.00 99 1011.1
20260902131229 23 152 0.0 0.0 0.00 0.00 0.00 99 1010.8
20260902130010 22 151 0.0 0.0 0.00 0.00 0.00 99 1010.8
20260902125429 22 152 0.0 0.0 0.00 0.00 0.00 99 1010.8
20260902123634 22 149 0.0 0.0 0.00 0.00 0.00 99 1010.8
20260902122449 22 149 0.0 0.0 0.00 0.00 0.00 99 1010.8
20260902121822 22 149 0.0 0.0 0.00 0.00 0.00 99 1010.8
20260902121239 22 149 0.0 0.0 0.00 0.00 0.00 99 1010.4
20260902120627 21 149 0.0 0.0 0.00 0.00 0.00 99 1010.8
20260902120044 21 149 0.0 0.0 0.00 0.00 0.00 99 1010.4
20260902115429 21 149 0.0 0.0 0.00 0.00 0.00 99 1010.8
20260902114825 21 153 0.0 0.0 0.00 0.00 0.00 99 1010.4
20260902114231 21 154 0.0 0.0 0.00 0.00 0.00 99 1010.4
20260902113642 21 155 0.0 0.0 0.00 0.00 0.00 99 1010.4
20260902113050 21 155 0.0 0.0 0.00 0.00 0.00 99 1010.4
20260902112431 21 155 0.0 0.0 0.00 0.00 0.00 99 1010.4
20260902111830 21 155 0.0 0.0 0.00 0.00 0.00 99 1010.4
20260902111235 21 156 0.0 0.0 0.00 0.00 0.00 99 1010.4
20260902110637 21 155 0.0 0.0 0.00 0.00 0.00 99 1010.4
20260902110025 21 155 0.0 0.0 0.00 0.00 0.00 99 1010.4
20260902105423 21 155 0.0 0.0 0.00 0.00 0.00 99 1010.4
20260902104809 21 155 0.0 0.0 0.00 0.00 0.00 99 1010.4
20260902103049 21 154 0.0 0.0 0.00 0.00 0.00 99 1010.4
20260902102410 21 154 0.0 0.0 0.00 0.00 0.00 99 1010.4
20260902101226 21 154 0.0 0.0 0.00 0.00 0.00 99 1010.1
20260902100647 21 154 0.0 0.0 0.00 0.00 0.00 99 1010.1
20260902100047 21 154 0.0 0.0 0.00 0.00 0.00 99 1010.1
20260902095431 21 153 0.0 0.0 0.00 0.00 0.00 99 1010.1
20260902094845 21 152 0.0 0.0 0.00 0.00 0.00 99 1010.1
20260902094218 21 151 0.0 0.0 0.00 0.00 0.00 99 1010.1
20260902093642 21 156 0.0 0.0 0.00 0.00 0.00 99 1010.1
20260902093025 21 156 0.0 0.0 0.00 0.00 0.00 99 1010.1
20260902092418 22 156 0.0 0.0 0.00 0.00 0.00 99 1010.1
20260902091820 22 156 0.0 0.0 0.00 0.00 0.00 99 1010.1
20260902091216 22 156 0.0 0.0 0.00 0.00 0.00 99 1010.1
20260902090613 22 156 0.0 0.0 0.00 0.00 0.00 99 1010.1
20260902090043 22 156 0.0 0.0 0.00 0.00 0.00 99 1010.4
20260902085434 22 156 0.0 0.0 0.00 0.00 0.00 99 1010.1
20260902084839 22 156 0.0 0.0 0.00 0.00 0.00 99 1010.1
20260902084212 22 156 0.0 0.0 0.00 0.00 0.00 99 1010.1
20260902083624 22 156 0.0 0.0 0.00 0.00 0.00 99 1010.1
20260902083037 22 156 0.0 0.0 0.00 0.00 0.00 99 1009.8
20260902082429 22 155 0.0 0.0 0.00 0.00 0.00 99 1009.8
20260902081822 22 155 0.0 0.0 0.00 0.00 0.00 99 1009.4
20260902080610 22 156 0.0 0.0 0.00 0.00 0.00 99 1009.8
20260902080014 22 155 0.0 0.0 0.00 0.00 0.00 99 1009.4
20260902074229 22 156 0.0 0.0 0.00 0.00 0.00 99 1009.4
20260902073616 22 151 0.0 0.0 0.00 0.00 0.00 99 1009.4
20260902073027 22 148 0.0 0.0 0.00 0.00 0.00 99 1009.4
20260902072443 22 148 0.0 0.0 0.00 0.00 0.00 99 1009.4
20260902071828 22 147 0.0 0.0 0.00 0.00 0.00 99 1009.4
20260902071230 22 145 0.0 0.0 0.00 0.00 0.00 99 1009.1
20260902070644 22 153 0.0 0.0 0.00 0.00 0.00 99 1009.4
20260902070017 22 149 0.0 0.0 0.00 0.00 0.00 99 1009.4
20260902065448 22 149 0.0 0.0 0.00 0.00 0.00 99 1009.4
20260902064838 22 147 0.0 0.0 0.00 0.00 0.00 99 1009.4
20260902064248 22 148 0.0 0.0 0.00 0.00 0.00 99 1009.4
20260902063632 22 154 0.0 0.0 0.00 0.00 0.00 99 1009.8
20260902063027 22 153 0.0 0.0 0.00 0.00 0.00 99 1009.8
20260902062406 22 153 0.0 0.0 0.00 0.00 0.00 99 1009.4
20260902061837 22 153 0.0 0.0 0.00 0.00 0.00 99 1009.8
20260902061209 22 153 0.0 0.0 0.00 0.00 0.00 99 1009.4
20260902060040 22 153 0.0 0.0 0.00 0.00 0.00 99 1009.4
20260902055429 22 153 0.0 0.0 0.00 0.00 0.00 99 1009.8
20260902054236 23 152 0.0 0.0 0.00 0.00 0.00 99 1009.4
20260902053613 23 149 0.0 0.0 0.00 0.00 0.00 99 1009.4
20260902053036 23 149 0.0 0.0 0.00 0.00 0.00 99 1009.4
20260902051834 23 150 0.0 0.0 0.00 0.00 0.00 99 1009.4
20260902051227 23 144 0.0 0.0 0.00 0.00 0.00 99 1009.4
20260902050618 23 143 0.0 0.0 0.00 0.00 0.00 99 1009.4
20260902050045 23 139 0.0 0.0 0.00 0.00 0.00 99 1009.4
20260902045448 23 144 0.0 0.0 0.00 0.00 0.00 99 1009.1
20260902044823 23 143 0.0 0.0 0.00 0.00 0.00 99 1009.4
20260902044213 23 144 0.0 0.0 0.00 0.00 0.00 99 1009.1
20260902043043 23 142 0.0 0.0 0.00 0.00 0.00 99 1009.1
20260902042435 23 139 0.0 0.0 0.00 0.00 0.00 99 1009.1
20260902041818 23 134 0.0 0.0 0.00 0.00 0.00 99 1008.8
20260902041251 23 139 0.0 0.0 0.00 0.00 0.00 99 1008.8
20260902040647 23 139 0.0 0.0 0.00 0.00 0.00 99 1009.1
20260902040038 23 137 0.0 0.0 0.00 0.00 0.00 99 1009.1
20260902035430 23 140 0.0 0.0 0.00 0.00 0.00 99 1009.1
20260902034242 24 138 0.0 0.0 0.00 0.00 0.00 99 1009.1
20260902033647 24 139 0.0 0.0 0.00 0.00 0.00 99 1009.1
20260902033012 24 138 0.0 0.0 0.00 0.00 0.00 99 1009.1
20260902032448 24 132 0.0 0.0 0.00 0.00 0.00 99 1009.1
20260902031839 24 101 0.0 0.0 0.00 0.00 0.00 99 1009.1
20260902031230 24 139 0.0 0.0 0.00 0.00 0.00 99 1009.1
20260902030631 24 146 0.0 0.0 0.00 0.00 0.00 99 1009.1
20260902030014 24 148 0.0 0.0 0.00 0.00 0.00 99 1009.1
20260902024214 24 148 0.0 0.0 0.00 0.00 0.00 99 1009.4
20260902023023 24 148 0.0 0.0 0.00 0.00 0.00 98 1009.1
20260902021816 25 148 0.0 0.0 0.00 0.00 0.00 98 1009.1
20260902021246 25 148 0.0 0.0 0.00 0.00 0.00 98 1009.1
20260902020623 25 148 0.0 0.0 0.00 0.00 0.00 98 1009.1
20260902020023 25 148 0.0 0.0 0.00 0.00 0.00 98 1009.1
20260902015432 25 148 0.0 0.0 0.00 0.00 0.00 97 1009.1
20260902014811 25 148 0.0 0.0 0.00 0.00 0.00 97 1009.1
20260902014231 25 148 0.0 0.0 0.00 0.00 0.00 97 1008.8
20260902013647 25 147 0.0 0.0 0.00 0.00 0.00 96 1009.1
20260902013044 25 132 0.0 0.0 0.00 0.00 0.00 96 1008.8
20260902012426 25 132 0.0 0.0 0.00 0.00 0.00 96 1008.8
20260902011824 25 129 0.0 0.0 0.00 0.00 0.00 96 1008.8
20260902011249 26 146 0.0 0.0 0.00 0.00 0.00 95 1008.8
20260902010627 26 151 0.0 0.0 0.00 0.00 0.00 96 1008.8
20260902004807 26 142 0.0 0.0 0.00 0.00 0.00 94 1008.8
20260902004231 26 148 0.0 0.0 0.00 0.00 0.00 93 1008.8
20260902003648 26 139 0.0 0.0 0.00 0.00 0.00 92 1008.8
20260902003026 26 149 0.0 0.0 0.00 0.00 0.00 92 1008.8
20260902001832 27 144 0.0 0.0 0.00 0.00 0.00 90 1008.8
20260902001250 27 142 0.0 0.0 0.00 0.00 0.00 89 1008.4
20260902000646 27 147 0.0 0.0 0.00 0.00 0.00 88 1008.4
20260902000008 28 142 0.0 0.0 0.00 0.00 0.00 86 1008.4
20260901235425 28 148 0.0 0.0 0.00 0.00 0.00 84 1008.8
20260901234817 30 146 0.0 0.0 0.00 0.00 0.00 81 1008.4
20260901234248 30 147 0.0 0.0 0.00 0.00 0.00 78 1008.8
20260901233618 31 148 0.0 0.0 0.00 0.00 0.00 76 1008.8
20260901233023 32 148 0.0 0.0 0.00 0.00 0.00 73 1008.8
20260901232439 32 143 0.0 0.0 0.00 0.00 0.00 71 1008.8
20260901231820 33 146 0.0 0.0 0.00 0.00 0.00 69 1008.4
20260901231211 33 150 0.0 0.0 0.00 0.00 0.00 69 1008.4
20260901230012 33 149 0.0 0.0 0.00 0.00 0.00 69 1008.4
20260901224843 33 144 0.0 0.0 0.00 0.00 0.00 68 1008.4
20260901224227 33 352 3.2 3.2 0.00 0.00 0.00 63 1008.1
20260901223610 33 215 3.2 3.2 0.00 0.00 0.00 62 1008.1
20260901223026 33 136 1.6 1.6 0.00 0.00 0.00 62 1008.1
20260901222408 33 140 1.6 1.6 0.00 0.00 0.00 62 1007.7
20260901221818 33 318 3.2 4.8 0.00 0.00 0.00 61 1008.1
20260901221208 33 346 3.2 3.2 0.00 0.00 0.00 62 1008.1
20260901220050 34 355 3.2 6.4 0.00 0.00 0.00 58 1008.1
20260901215424 34 338 1.6 1.6 0.00 0.00 0.00 57 1008.4
20260901214808 35 303 3.2 4.8 0.00 0.00 0.00 58 1008.1
20260901214217 35 277 1.6 1.6 0.00 0.00 0.00 56 1008.4
20260901213621 35 25 3.2 3.2 0.00 0.00 0.00 57 1008.4
20260901213041 36 273 3.2 4.8 0.00 0.00 0.00 57 1008.4
20260901212422 36 194 0.0 1.6 0.00 0.00 0.00 61 1008.8
20260901211846 35 188 1.6 1.6 0.00 0.00 0.00 61 1008.8
20260901211230 36 184 1.6 1.6 0.00 0.00 0.00 59 1008.8
20260901210641 37 189 1.6 1.6 0.00 0.00 0.00 59 1008.8
20260901210006 36 158 1.6 1.6 0.00 0.00 0.00 52 1008.8
20260901205447 36 263 1.6 1.6 0.00 0.00 0.00 56 1008.8
20260901204809 36 196 1.6 1.6 0.00 0.00 0.00 59 1009.1
20260901204240 36 188 0.0 1.6 0.00 0.00 0.00 58 1009.1
20260901203613 36 184 1.6 3.2 0.00 0.00 0.00 55 1009.1
20260901203012 35 143 3.2 3.2 0.00 0.00 0.00 56 1009.1
20260901202421 36 210 1.6 1.6 0.00 0.00 0.00 60 1009.1
20260901201234 35 206 3.2 3.2 0.00 0.00 0.00 53 1009.1
20260901200609 36 204 6.4 9.7 0.00 0.00 0.00 54 1009.1
20260901200012 36 195 1.6 1.6 0.00 0.00 0.00 56 1009.4
20260901195425 35 209 1.6 3.2 0.00 0.00 0.00 57 1009.4
20260901194829 35 204 1.6 3.2 0.00 0.00 0.00 58 1009.4
20260901194241 34 159 1.6 1.6 0.00 0.00 0.00 64 1009.4
20260901193608 34 179 1.6 1.6 0.00 0.00 0.00 65 1009.4
20260901193026 33 153 0.0 0.0 0.00 0.00 0.00 69 1009.8
20260901192409 33 124 0.0 0.0 0.00 0.00 0.00 69 1009.8
20260901191832 33 184 1.6 1.6 0.00 0.00 0.00 62 1009.8
20260901191242 34 196 4.8 6.4 0.00 0.00 0.00 63 1010.1
20260901190629 34 212 6.4 12.9 0.00 0.00 0.00 58 1010.1
20260901190017 33 215 4.8 6.4 0.00 0.00 0.00 61 1009.8
20260901185410 33 226 6.4 6.4 0.00 0.00 0.00 59 1010.1
20260901184216 33 208 4.8 4.8 0.00 0.00 0.00 65 1009.8
20260901183627 33 191 1.6 3.2 0.00 0.00 0.00 63 1010.1
20260901181814 32 223 4.8 6.4 0.00 0.00 0.00 67 1010.4
20260901181235 33 206 1.6 3.2 0.00 0.00 0.00 67 1010.4
20260901180639 33 249 3.2 3.2 0.00 0.00 0.00 65 1010.1
20260901180039 33 195 3.2 3.2 0.00 0.00 0.00 66 1010.1
20260901175425 32 172 0.0 0.0 0.00 0.00 0.00 74 1010.4
20260901174239 31 272 1.6 1.6 0.00 0.00 0.00 71 1010.8
20260901171834 33 324 3.2 4.8 0.00 0.00 0.00 67 1010.8
20260901171219 33 197 4.8 6.4 0.00 0.00 0.00 69 1011.1
20260901170641 33 34 0.0 1.6 0.00 0.00 0.00 68 1011.1
20260901170006 32 270 3.2 4.8 0.00 0.00 0.00 72 1010.8
20260901165427 33 269 6.4 9.7 0.00 0.00 0.00 69 1010.8
20260901164845 32 167 1.6 1.6 0.00 0.00 0.00 71 1011.1
20260901164209 32 271 1.6 3.2 0.00 0.00 0.00 71 1011.1
20260901163630 32 238 4.8 4.8 0.00 0.00 0.00 71 1011.1
20260901162428 32 297 1.6 1.6 0.00 0.00 0.00 72 1010.8
20260901161234 31 268 4.8 6.4 0.00 0.00 0.00 74 1010.8
20260901160648 31 235 3.2 3.2 0.00 0.00 0.00 75 1010.8
20260901160032 31 290 6.4 9.7 0.00 0.00 0.00 72 1010.8
20260901155427 31 290 3.2 4.8 0.00 0.00 0.00 74 1011.1
20260901154836 31 260 6.4 6.4 0.00 0.00 0.00 74 1010.8
20260901154234 31 234 4.8 4.8 0.00 0.00 0.00 75 1010.4
20260901153649 31 328 4.8 4.8 0.00 0.00 0.00 76 1010.8
20260901153008 31 298 4.8 4.8 0.00 0.00 0.00 76 1011.1